Kalispell, MT

3:21 AM MDT on March 23, 2017 (GMT -0600)
Glacier Park International

Weather History for KGPI - February, 2013

Change the Weather History Date:

Wednesday, February 27, 2013

  Actual Average Record
Temperature  
Mean Temperature 32 °F 30 °F  
Max Temperature 41 °F 39 °F 62 °F (1932)
Min Temperature 23 °F 20 °F -19 °F (1960)
Degree Days  
Heating Degree Days 33 35  
Month to date heating degree days 884 1024  
Since 1 July heating degree days 5257 5815  
Cooling Degree Days 0 0  
Month to date cooling degree days 0 0  
Year to date cooling degree days 0 0  
Moisture  
Dew Point 24 °F    
Average Humidity 71    
Maximum Humidity 96    
Minimum Humidity 45    
Precipitation  
Precipitation 0.01 in 0.03 in 0.77 in (1997)
Month to date precipitation 0.19 0.93  
Year to date precipitation 1.06 2.26  
Snow  
Snow T in - - ()
Month to date snowfall 1.3  
Year to date snowfall 7.3  
Since 1 July snowfall 16.1  
Snow Depth 0.00 in    
Sea Level Pressure  
Sea Level Pressure 30.26 in    
Wind  
Wind Speed 3 mph (WSW)    
Max Wind Speed 18 mph    
Max Gust Speed 22 mph    
Visibility 9 miles    
Events Snow    
T = Trace of Precipitation, MM = Missing Value Source: NWS Daily Summary

Daily Weather History Graph

Daily Weather History Graph

Search for Another Location

Airport or City:

Trip Planner

Search our weather history database for the weather conditions in past years. The results will help you decide how hot, cold, wet, or windy it might be!

Date:

Astronomy

Feb. 27, 2013 Rise Set
Actual Time 7:21 AM MST 6:18 PM MST
Civil Twilight 6:50 AM MST 6:49 PM MST
Nautical Twilight 6:14 AM MST 7:26 PM MST
Astronomical Twilight 5:37 AM MST 8:02 PM MST
Moon 9:00 PM MST (2/27) 7:45 AM MST (2/27)
Length of Visible Light 11h 59m
Length of Day
10h 57m
Waning Gibbous, 96% of the Moon is Illuminated
Feb 27
Waning Gibbous
Mar 4
Last Quarter
Mar 11
New
Mar 19
First Quarter
Mar 27
Full

Hourly Weather History & Observations

Time (MST) Temp. Windchill Dew Point Humidity Pressure Visibility Wind Dir Wind Speed Gust Speed Precip Events Conditions
12:55 AM 28.9 °F - 19.0 °F 67% 30.31 in 10.0 mi Calm Calm - N/A   Clear
1:55 AM 25.0 °F 20.7 °F 18.0 °F 75% 30.31 in 10.0 mi South 3.5 mph - N/A   Clear
2:55 AM 25.0 °F - 19.9 °F 81% 30.29 in 10.0 mi Calm Calm - N/A   Mostly Cloudy
3:55 AM 23.0 °F - 19.9 °F 88% 30.30 in 10.0 mi Calm Calm - N/A   Clear
4:55 AM 25.0 °F - 21.9 °F 88% 30.30 in 10.0 mi Calm Calm - N/A   Scattered Clouds
5:55 AM 23.0 °F 18.4 °F 21.0 °F 92% 30.29 in 10.0 mi North 3.5 mph - N/A   Partly Cloudy
6:55 AM 25.0 °F - 21.9 °F 88% 30.30 in 10.0 mi Calm Calm - N/A   Overcast
7:55 AM 26.1 °F - 23.0 °F 88% 30.30 in 10.0 mi Calm Calm - N/A   Overcast
8:55 AM 28.9 °F - 24.1 °F 82% 30.30 in 10.0 mi Calm Calm - N/A   Overcast
9:55 AM 30.9 °F - 24.1 °F 76% 30.30 in 10.0 mi Calm Calm - N/A   Overcast
10:55 AM 35.1 °F 30.1 °F 21.0 °F 57% 30.29 in 10.0 mi South 5.8 mph - N/A   Mostly Cloudy
11:55 AM 37.9 °F 30.5 °F 21.0 °F 51% 30.28 in 10.0 mi South 11.5 mph - N/A   Overcast
12:55 PM 39.9 °F 33.4 °F 21.0 °F 47% 30.26 in 10.0 mi SSE 10.4 mph - N/A   Overcast
1:55 PM 39.0 °F 33.4 °F 21.9 °F 50% 30.25 in 10.0 mi South 8.1 mph 19.6 mph N/A   Overcast
2:55 PM 41.0 °F 35.8 °F 21.9 °F 47% 30.25 in 10.0 mi WSW 8.1 mph - N/A   Overcast
3:55 PM 39.9 °F 36.7 °F 21.9 °F 49% 30.26 in 10.0 mi WNW 4.6 mph - N/A   Overcast
4:07 PM 37.4 °F 29.3 °F 26.6 °F 65% 30.19 in 1.8 mi WSW 12.7 mph 18.4 mph 0.00 in Snow Light Snow
4:11 PM 35.6 °F 30.7 °F 28.4 °F 75% 30.20 in 0.8 mi SW 5.8 mph 18.4 mph 0.00 in Snow Light Snow
4:17 PM 35.6 °F 32.8 °F 30.2 °F 81% 30.19 in 1.0 mi West 3.5 mph - 0.01 in Snow Light Snow
4:21 PM 35.6 °F 32.8 °F 28.4 °F 75% 30.19 in 2.5 mi NNW 3.5 mph - 0.01 in Snow Light Snow
4:27 PM 35.6 °F 32.8 °F 30.2 °F 81% 30.19 in 9.0 mi North 3.5 mph - 0.01 in   Overcast
4:39 PM 37.4 °F 33.8 °F 30.2 °F 75% 30.20 in 10.0 mi North 4.6 mph - 0.01 in   Overcast
4:55 PM 37.9 °F - 30.9 °F 76% 30.28 in 10.0 mi Calm Calm - 0.01 in   Mostly Cloudy
5:55 PM 34.0 °F 28.0 °F 28.9 °F 82% 30.30 in 10.0 mi SSW 6.9 mph - N/A   Mostly Cloudy
6:55 PM 32.0 °F 27.5 °F 24.8 °F 75% 30.21 in 10.0 mi SW 4.6 mph - N/A   Partly Cloudy
7:55 PM 28.9 °F - 23.0 °F 78% 30.32 in 10.0 mi Calm Calm - N/A   Clear
8:55 PM 26.1 °F - 21.9 °F 84% 30.32 in 10.0 mi Calm Calm - N/A   Clear
9:55 PM 27.0 °F - 23.0 °F 85% 30.32 in 10.0 mi Calm Calm - N/A   Clear
10:55 PM 26.6 °F - 23.0 °F 86% 30.22 in 10.0 mi Calm Calm - N/A   Partly Cloudy
11:55 PM 26.6 °F - 24.8 °F 93% 30.22 in 10.0 mi Calm Calm - N/A   Overcast